Year,Month,Day,Hour,Minute,Value (Times are PST for temperature in C)
2018,09,29,00,00,12.20
2018,09,29,00,01,12.20
2018,09,29,00,02,12.20
2018,09,29,00,03,12.20
2018,09,29,00,04,12.20
2018,09,29,00,05,12.20
2018,09,29,00,06,12.20
2018,09,29,00,07,12.20
2018,09,29,00,08,12.10
2018,09,29,00,09,12.10
2018,09,29,00,10,12.10
2018,09,29,00,11,12.10
2018,09,29,00,12,12.10
2018,09,29,00,13,12.10
2018,09,29,00,14,12.10
2018,09,29,00,15,12.10
2018,09,29,00,16,12.10
2018,09,29,00,17,12.00
2018,09,29,00,18,12.10
2018,09,29,00,19,12.10
2018,09,29,00,20,12.10
2018,09,29,00,21,12.10
2018,09,29,00,22,12.10
2018,09,29,00,23,12.10
2018,09,29,00,24,12.10
2018,09,29,00,25,12.10
2018,09,29,00,26,12.10
2018,09,29,00,27,12.10
2018,09,29,00,28,12.10
2018,09,29,00,29,12.10
2018,09,29,00,30,12.10
2018,09,29,00,31,12.00
2018,09,29,00,32,12.00
2018,09,29,00,33,12.00
2018,09,29,00,34,12.00
2018,09,29,00,35,12.00
2018,09,29,00,36,12.00
2018,09,29,00,37,12.00
2018,09,29,00,38,12.00
2018,09,29,00,39,12.00
2018,09,29,00,40,12.00
2018,09,29,00,41,12.00
2018,09,29,00,42,12.00
2018,09,29,00,43,12.00
2018,09,29,00,44,12.00
2018,09,29,00,45,12.00
2018,09,29,00,46,11.90
2018,09,29,00,47,11.90
2018,09,29,00,48,11.90
2018,09,29,00,49,11.90
2018,09,29,00,50,11.90
2018,09,29,00,51,11.90
2018,09,29,00,52,11.90
2018,09,29,00,53,11.90
2018,09,29,00,54,11.80
2018,09,29,00,55,11.80
2018,09,29,00,56,11.80
2018,09,29,00,57,11.80
2018,09,29,00,58,11.80
2018,09,29,00,59,11.80
2018,09,29,01,00,11.80
2018,09,29,01,01,11.80
2018,09,29,01,02,11.80
2018,09,29,01,03,11.80
2018,09,29,01,04,11.80
2018,09,29,01,05,11.80
2018,09,29,01,06,11.80
2018,09,29,01,07,11.80
2018,09,29,01,08,11.80
2018,09,29,01,09,11.80
2018,09,29,01,10,11.80
2018,09,29,01,11,11.80
2018,09,29,01,12,11.80
2018,09,29,01,13,11.80
2018,09,29,01,14,11.80
2018,09,29,01,15,11.80
2018,09,29,01,16,11.70
2018,09,29,01,17,11.70
2018,09,29,01,18,11.70
2018,09,29,01,19,11.70
2018,09,29,01,20,11.70
2018,09,29,01,21,11.70
2018,09,29,01,22,11.70
2018,09,29,01,23,11.70
2018,09,29,01,24,11.70
2018,09,29,01,25,11.70
2018,09,29,01,26,11.70
2018,09,29,01,27,11.70
2018,09,29,01,28,11.70
2018,09,29,01,29,11.70
2018,09,29,01,30,11.70
2018,09,29,01,31,11.70
2018,09,29,01,32,11.70
2018,09,29,01,33,11.70
2018,09,29,01,34,11.70
2018,09,29,01,35,11.70
2018,09,29,01,36,11.70
2018,09,29,01,37,11.70
2018,09,29,01,38,11.70
2018,09,29,01,39,11.70
2018,09,29,01,40,11.70
2018,09,29,01,41,11.70
2018,09,29,01,42,11.70
2018,09,29,01,43,11.70
2018,09,29,01,44,11.70
2018,09,29,01,45,11.70
2018,09,29,01,46,11.70
2018,09,29,01,47,11.70
2018,09,29,01,48,11.70
2018,09,29,01,49,11.70
2018,09,29,01,50,11.70
2018,09,29,01,51,11.70
2018,09,29,01,52,11.70
2018,09,29,01,53,11.70
2018,09,29,01,54,11.70
2018,09,29,01,55,11.70
2018,09,29,01,56,11.70
2018,09,29,01,57,11.70
2018,09,29,01,58,11.70
2018,09,29,01,59,11.70
2018,09,29,02,00,11.70
2018,09,29,02,01,11.70
2018,09,29,02,02,11.70
2018,09,29,02,03,11.80
2018,09,29,02,04,11.80
2018,09,29,02,05,11.80
2018,09,29,02,06,11.80
2018,09,29,02,07,11.80
2018,09,29,02,08,11.80
2018,09,29,02,09,11.90
2018,09,29,02,10,11.90
2018,09,29,02,11,11.90
2018,09,29,02,12,12.00
2018,09,29,02,13,12.00
2018,09,29,02,14,12.10
2018,09,29,02,15,12.10
2018,09,29,02,16,12.20
2018,09,29,02,17,12.20
2018,09,29,02,18,12.20
2018,09,29,02,19,12.20
2018,09,29,02,20,12.20
2018,09,29,02,21,12.20
2018,09,29,02,22,12.30
2018,09,29,02,23,12.30
2018,09,29,02,24,12.30
2018,09,29,02,25,12.30
2018,09,29,02,26,12.30
2018,09,29,02,27,12.40
2018,09,29,02,28,12.40
2018,09,29,02,29,12.40
2018,09,29,02,30,12.50
2018,09,29,02,31,12.50
2018,09,29,02,32,12.50
2018,09,29,02,33,12.60
2018,09,29,02,34,12.70
2018,09,29,02,35,12.70
2018,09,29,02,36,12.70
2018,09,29,02,37,12.70
2018,09,29,02,38,12.70
2018,09,29,02,39,12.70
2018,09,29,02,40,12.80
2018,09,29,02,41,12.80
2018,09,29,02,42,12.90
2018,09,29,02,43,13.00
2018,09,29,02,44,13.00
2018,09,29,02,45,13.10
2018,09,29,02,46,13.10
2018,09,29,02,47,13.10
2018,09,29,02,48,13.10
2018,09,29,02,49,13.10
2018,09,29,02,50,13.10
2018,09,29,02,51,13.10
2018,09,29,02,52,13.10
2018,09,29,02,53,13.10
2018,09,29,02,54,13.00
2018,09,29,02,55,12.90
2018,09,29,02,56,12.80
2018,09,29,02,57,12.80
2018,09,29,02,58,12.70
2018,09,29,02,59,12.70
2018,09,29,03,00,12.70
2018,09,29,03,01,12.70
2018,09,29,03,02,12.80
2018,09,29,03,03,12.80
2018,09,29,03,04,12.80
2018,09,29,03,05,12.80
2018,09,29,03,06,12.80
2018,09,29,03,07,12.80
2018,09,29,03,08,12.80
2018,09,29,03,09,12.80
2018,09,29,03,10,12.70
2018,09,29,03,11,12.70
2018,09,29,03,12,12.70
2018,09,29,03,13,12.60
2018,09,29,03,14,12.60
2018,09,29,03,15,12.50
2018,09,29,03,16,12.50
2018,09,29,03,17,12.40
2018,09,29,03,18,12.40
2018,09,29,03,19,12.40
2018,09,29,03,20,12.40
2018,09,29,03,21,12.40
2018,09,29,03,22,12.40
2018,09,29,03,23,12.50
2018,09,29,03,24,12.50
2018,09,29,03,25,12.60
2018,09,29,03,26,12.60
2018,09,29,03,27,12.70
2018,09,29,03,28,12.70
2018,09,29,03,29,12.70
2018,09,29,03,30,12.70
2018,09,29,03,31,12.80
2018,09,29,03,32,12.80
2018,09,29,03,33,12.80
2018,09,29,03,34,12.80
2018,09,29,03,35,12.80
2018,09,29,03,36,12.80
2018,09,29,03,37,12.80
2018,09,29,03,38,12.70
2018,09,29,03,39,12.70
2018,09,29,03,40,12.70
2018,09,29,03,41,12.70
2018,09,29,03,42,12.60
2018,09,29,03,43,12.60
2018,09,29,03,44,12.60
2018,09,29,03,45,12.60
2018,09,29,03,46,12.60
2018,09,29,03,47,12.60
2018,09,29,03,48,12.70
2018,09,29,03,49,12.70
2018,09,29,03,50,12.70
2018,09,29,03,51,12.70
2018,09,29,03,52,12.80
2018,09,29,03,53,12.80
2018,09,29,03,54,12.80
2018,09,29,03,55,12.90
2018,09,29,03,56,12.90
2018,09,29,03,57,13.00
2018,09,29,03,58,13.00
2018,09,29,03,59,13.10
2018,09,29,04,00,13.10
2018,09,29,04,01,13.20
2018,09,29,04,02,13.20
2018,09,29,04,03,13.30
2018,09,29,04,04,13.30
2018,09,29,04,05,13.30
2018,09,29,04,06,13.30
2018,09,29,04,07,13.30
2018,09,29,04,08,13.40
2018,09,29,04,09,13.50
2018,09,29,04,10,13.60
2018,09,29,04,11,13.70
2018,09,29,04,12,13.90
2018,09,29,04,13,14.00
2018,09,29,04,14,14.10
2018,09,29,04,15,14.20
2018,09,29,04,16,14.30
2018,09,29,04,17,14.40
2018,09,29,04,18,14.50
2018,09,29,04,19,14.50
2018,09,29,04,20,14.60
2018,09,29,04,21,14.60
2018,09,29,04,22,14.60
2018,09,29,04,23,14.60
2018,09,29,04,24,14.60
2018,09,29,04,25,14.70
2018,09,29,04,26,14.70
2018,09,29,04,27,14.80
2018,09,29,04,28,14.80
2018,09,29,04,29,14.80
2018,09,29,04,30,14.90
2018,09,29,04,31,14.90
2018,09,29,04,32,14.90
2018,09,29,04,33,15.00
2018,09,29,04,34,15.00
2018,09,29,04,35,15.00
2018,09,29,04,36,15.00
2018,09,29,04,37,15.00
2018,09,29,04,38,15.00
2018,09,29,04,39,15.00
2018,09,29,04,40,15.00
2018,09,29,04,41,14.90
2018,09,29,04,42,15.00
2018,09,29,04,43,14.90
2018,09,29,04,44,15.00
2018,09,29,04,45,15.00
2018,09,29,04,46,15.00
2018,09,29,04,47,15.00
2018,09,29,04,48,15.00
2018,09,29,04,49,15.00
2018,09,29,04,50,15.00
2018,09,29,04,51,15.00
2018,09,29,04,52,15.00
2018,09,29,04,53,14.90
2018,09,29,04,54,14.90
2018,09,29,04,55,14.90
2018,09,29,04,56,14.90
2018,09,29,04,57,14.90
2018,09,29,04,58,14.90
2018,09,29,04,59,15.00
2018,09,29,05,00,15.00
2018,09,29,05,01,15.00
2018,09,29,05,02,15.00
2018,09,29,05,03,15.00
2018,09,29,05,04,15.00
2018,09,29,05,05,14.90
2018,09,29,05,06,14.90
2018,09,29,05,07,14.90
2018,09,29,05,08,14.90
2018,09,29,05,09,14.80
2018,09,29,05,10,14.70
2018,09,29,05,11,14.70
2018,09,29,05,12,14.60
2018,09,29,05,13,14.60
2018,09,29,05,14,14.60
2018,09,29,05,15,14.60
2018,09,29,05,16,14.60
2018,09,29,05,17,14.70
2018,09,29,05,18,14.70
2018,09,29,05,19,14.70
2018,09,29,05,20,14.70
2018,09,29,05,21,14.70
2018,09,29,05,22,14.70
2018,09,29,05,23,14.70
2018,09,29,05,24,14.70
2018,09,29,05,25,14.70
2018,09,29,05,26,14.70
2018,09,29,05,27,14.70
2018,09,29,05,28,14.80
2018,09,29,05,29,14.80
2018,09,29,05,30,14.80
2018,09,29,05,31,14.80
2018,09,29,05,32,14.80
2018,09,29,05,33,14.80
2018,09,29,05,34,14.80
2018,09,29,05,35,14.80
2018,09,29,05,36,14.80
2018,09,29,05,37,14.70
2018,09,29,05,38,14.70
2018,09,29,05,39,14.70
2018,09,29,05,40,14.70
2018,09,29,05,41,14.70
2018,09,29,05,42,14.70
2018,09,29,05,43,14.70
2018,09,29,05,44,14.70
2018,09,29,05,45,14.60
2018,09,29,05,46,14.60
2018,09,29,05,47,14.60
2018,09,29,05,48,14.50
2018,09,29,05,49,14.50
2018,09,29,05,50,14.50
2018,09,29,05,51,14.40
2018,09,29,05,52,14.40
2018,09,29,05,53,14.40
2018,09,29,05,54,14.40
2018,09,29,05,55,14.30
2018,09,29,05,56,14.30
2018,09,29,05,57,14.30
2018,09,29,05,58,14.30
2018,09,29,07,37,14.30
2018,09,29,07,38,14.30
2018,09,29,07,39,14.30
2018,09,29,07,40,14.30
2018,09,29,07,41,14.30
2018,09,29,07,42,14.30
2018,09,29,07,43,14.30
2018,09,29,07,44,14.40
2018,09,29,07,45,14.40
2018,09,29,07,46,14.40
2018,09,29,07,47,14.40
2018,09,29,07,48,14.50
2018,09,29,07,49,14.50
2018,09,29,07,50,14.50
2018,09,29,07,51,14.60
2018,09,29,07,52,14.60
2018,09,29,07,53,14.70
2018,09,29,07,54,14.70
2018,09,29,07,55,14.70
2018,09,29,07,56,14.70
2018,09,29,07,57,14.70
2018,09,29,07,58,14.70
2018,09,29,07,59,14.70
2018,09,29,08,00,14.70
2018,09,29,08,01,14.60
2018,09,29,08,02,14.60
2018,09,29,08,03,14.70
2018,09,29,08,04,14.70
2018,09,29,08,05,14.70
2018,09,29,08,06,14.70
2018,09,29,08,07,14.80
2018,09,29,08,08,14.80
2018,09,29,08,09,14.80
2018,09,29,08,10,14.80
2018,09,29,08,11,14.80
2018,09,29,08,12,14.80
2018,09,29,08,13,14.80
2018,09,29,08,14,14.90
2018,09,29,08,15,14.90
2018,09,29,08,16,14.90
2018,09,29,08,17,15.00
2018,09,29,08,18,15.00
2018,09,29,08,19,15.00
2018,09,29,08,20,15.00
2018,09,29,08,21,15.10
2018,09,29,08,22,15.10
2018,09,29,08,23,15.10
2018,09,29,08,24,15.10
2018,09,29,08,25,15.20
2018,09,29,08,26,15.20
2018,09,29,08,27,15.20
2018,09,29,08,28,15.20
2018,09,29,08,29,15.20
2018,09,29,08,30,15.20
2018,09,29,08,31,15.20
2018,09,29,08,32,15.20
2018,09,29,08,33,15.10
2018,09,29,08,34,15.10
2018,09,29,08,35,15.10
2018,09,29,08,36,15.00
2018,09,29,08,37,15.00
2018,09,29,08,38,15.00
2018,09,29,08,39,15.10
2018,09,29,08,40,15.10
2018,09,29,08,41,15.10
2018,09,29,08,42,15.10
2018,09,29,08,43,15.10
2018,09,29,08,44,15.10
2018,09,29,08,45,15.00
2018,09,29,08,46,15.00
2018,09,29,08,47,15.00
2018,09,29,08,48,15.00
2018,09,29,08,49,15.10
2018,09,29,08,50,15.10
2018,09,29,08,51,15.10
2018,09,29,08,52,15.20
2018,09,29,08,53,15.30
2018,09,29,08,54,15.30
2018,09,29,08,55,15.30
2018,09,29,08,56,15.40
2018,09,29,08,57,15.40
2018,09,29,08,58,15.40
2018,09,29,08,59,15.30
2018,09,29,09,00,15.30
2018,09,29,09,01,15.30
2018,09,29,09,02,15.20
2018,09,29,09,03,15.20
2018,09,29,09,04,15.20
2018,09,29,09,05,15.20
2018,09,29,09,06,15.20
2018,09,29,09,07,15.20
2018,09,29,09,08,15.20
2018,09,29,09,09,15.20
2018,09,29,09,10,15.30
2018,09,29,09,11,15.30
2018,09,29,09,12,15.30
2018,09,29,09,13,15.40
2018,09,29,09,14,15.40
2018,09,29,09,15,15.50
2018,09,29,09,16,15.50
2018,09,29,09,17,15.60
2018,09,29,09,18,15.70
2018,09,29,09,19,15.70
2018,09,29,09,20,15.80
2018,09,29,09,21,15.90
2018,09,29,09,22,15.90
2018,09,29,09,23,15.90
2018,09,29,09,24,15.90
2018,09,29,09,25,15.80
2018,09,29,09,26,15.70
2018,09,29,09,27,15.60
2018,09,29,09,28,15.50
2018,09,29,09,29,15.50
2018,09,29,09,30,15.40
2018,09,29,09,31,15.40
2018,09,29,09,32,15.40
2018,09,29,09,33,15.40
2018,09,29,09,34,15.50
2018,09,29,09,35,15.50
2018,09,29,09,36,15.50
2018,09,29,09,37,15.50
2018,09,29,09,38,15.60
2018,09,29,09,39,15.60
2018,09,29,09,40,15.60
2018,09,29,09,41,15.60
2018,09,29,09,42,15.50
2018,09,29,09,43,15.50
2018,09,29,09,44,15.40
2018,09,29,09,45,15.40
2018,09,29,09,46,15.40
2018,09,29,09,47,15.40
2018,09,29,09,48,15.40
2018,09,29,09,49,15.40
2018,09,29,09,50,15.40
2018,09,29,09,51,15.40
2018,09,29,09,52,15.40
2018,09,29,09,53,15.40
2018,09,29,09,54,15.40
2018,09,29,09,55,15.30
2018,09,29,09,56,15.30
2018,09,29,09,57,15.30
2018,09,29,09,58,15.20
2018,09,29,09,59,15.20
2018,09,29,10,00,15.20
2018,09,29,10,01,15.20
2018,09,29,10,02,15.20
2018,09,29,10,03,15.10
2018,09,29,10,04,15.10
2018,09,29,10,05,15.10
2018,09,29,10,06,15.10
2018,09,29,10,07,15.10
2018,09,29,10,08,15.20
2018,09,29,10,09,15.20
2018,09,29,10,10,15.20
2018,09,29,10,11,15.20
2018,09,29,10,12,15.20
2018,09,29,10,13,15.20
2018,09,29,10,14,15.10
2018,09,29,10,15,15.10
2018,09,29,10,16,15.10
2018,09,29,10,17,15.10
2018,09,29,10,18,15.10
2018,09,29,10,19,15.10
2018,09,29,10,20,15.10
2018,09,29,10,21,15.20
2018,09,29,10,22,15.10
2018,09,29,10,23,15.10
2018,09,29,10,24,15.00
2018,09,29,10,25,14.90
2018,09,29,10,26,14.80
2018,09,29,10,27,14.70
2018,09,29,10,28,14.70
2018,09,29,10,29,14.70
2018,09,29,10,30,14.80
2018,09,29,10,31,14.80
2018,09,29,10,32,14.80
2018,09,29,10,33,14.80
2018,09,29,10,34,14.80
2018,09,29,10,35,14.80
2018,09,29,10,36,14.90
2018,09,29,10,37,14.90
2018,09,29,10,38,14.90
2018,09,29,10,39,14.90
2018,09,29,10,40,14.90
2018,09,29,10,41,14.90
2018,09,29,10,42,14.90
2018,09,29,10,43,14.90
2018,09,29,10,44,14.90
2018,09,29,10,45,14.90
2018,09,29,10,46,14.90
2018,09,29,10,47,14.90
2018,09,29,10,48,14.90
2018,09,29,10,49,14.80
2018,09,29,10,50,14.80
2018,09,29,10,51,14.70
2018,09,29,10,52,14.70
2018,09,29,10,53,14.70
2018,09,29,10,54,14.70
2018,09,29,10,55,14.80
2018,09,29,10,56,14.80
2018,09,29,10,57,14.80
2018,09,29,10,58,14.80
2018,09,29,10,59,14.80
2018,09,29,11,00,14.70
2018,09,29,11,01,14.70
2018,09,29,11,02,14.80
2018,09,29,11,03,14.80
2018,09,29,11,04,14.80
2018,09,29,11,05,14.80
2018,09,29,11,06,14.80
2018,09,29,11,07,14.80
2018,09,29,11,08,14.80
2018,09,29,11,09,14.80
2018,09,29,11,10,14.80
2018,09,29,11,11,14.80
2018,09,29,11,12,14.90
2018,09,29,11,13,15.00
2018,09,29,11,14,15.00
2018,09,29,11,15,15.00
2018,09,29,11,16,15.00
2018,09,29,11,17,15.00
2018,09,29,11,18,15.00
2018,09,29,11,19,15.00
2018,09,29,11,20,15.00
2018,09,29,11,21,15.10
2018,09,29,11,22,15.10
2018,09,29,11,23,15.10
2018,09,29,11,24,15.10
2018,09,29,11,25,15.10
2018,09,29,11,26,15.10
2018,09,29,11,27,15.10
2018,09,29,11,28,15.10
2018,09,29,11,29,15.10
2018,09,29,11,30,15.10
2018,09,29,11,31,15.10
2018,09,29,11,32,15.00
2018,09,29,11,33,15.00
2018,09,29,11,34,15.00
2018,09,29,11,35,14.90
2018,09,29,11,36,15.00
2018,09,29,11,37,15.00
2018,09,29,11,38,15.10
2018,09,29,11,39,15.20
2018,09,29,11,40,15.20
2018,09,29,11,41,15.20
2018,09,29,11,42,15.30
2018,09,29,11,43,15.30
2018,09,29,11,44,15.30
2018,09,29,11,45,15.20
2018,09,29,11,46,15.20
2018,09,29,11,47,15.10
2018,09,29,11,48,15.10
2018,09,29,11,49,15.00
2018,09,29,11,50,15.10
2018,09,29,11,51,15.10
2018,09,29,11,52,15.20
2018,09,29,11,53,15.20
2018,09,29,11,54,15.10
2018,09,29,11,55,15.10
2018,09,29,11,56,15.10
2018,09,29,11,57,15.10
2018,09,29,11,58,15.00
2018,09,29,11,59,14.90
2018,09,29,12,00,14.90
2018,09,29,12,01,15.00
2018,09,29,12,02,15.00
2018,09,29,12,03,15.10
2018,09,29,12,04,15.10
2018,09,29,12,05,15.10
2018,09,29,12,06,15.10
2018,09,29,12,07,15.20
2018,09,29,12,08,15.20
2018,09,29,12,09,15.30
2018,09,29,12,10,15.30
2018,09,29,12,11,15.30
2018,09,29,12,12,15.30
2018,09,29,12,13,15.30
2018,09,29,12,14,15.20
2018,09,29,12,15,15.20
2018,09,29,12,16,15.20
2018,09,29,12,17,15.20
2018,09,29,12,18,15.10
2018,09,29,12,19,15.10
2018,09,29,12,20,15.00
2018,09,29,12,21,15.00
2018,09,29,12,22,15.00
2018,09,29,12,23,15.00
2018,09,29,12,24,15.00
2018,09,29,12,25,15.10
2018,09,29,12,26,15.10
2018,09,29,12,27,15.20
2018,09,29,12,28,15.20
2018,09,29,12,29,15.20
2018,09,29,12,30,15.20
2018,09,29,12,31,15.20
2018,09,29,12,32,15.10
2018,09,29,12,33,15.10
2018,09,29,12,34,15.10
2018,09,29,12,35,15.20
2018,09,29,12,36,15.20
2018,09,29,12,37,15.10
2018,09,29,12,38,15.10
2018,09,29,12,39,15.10
2018,09,29,12,40,15.10
2018,09,29,12,41,15.20
2018,09,29,12,42,15.10
2018,09,29,12,43,15.10
2018,09,29,12,44,15.10
2018,09,29,12,45,15.00
2018,09,29,12,46,14.90
2018,09,29,12,47,14.90
2018,09,29,12,48,15.00
2018,09,29,12,49,15.10
2018,09,29,12,50,15.20
2018,09,29,12,51,15.20
2018,09,29,12,52,15.20
2018,09,29,12,53,15.20
2018,09,29,12,54,15.20
2018,09,29,12,55,15.20
2018,09,29,12,56,15.10
2018,09,29,12,57,15.10
2018,09,29,12,58,15.10
2018,09,29,12,59,15.10
2018,09,29,13,00,15.10
2018,09,29,13,01,15.10
2018,09,29,13,02,15.10
2018,09,29,13,03,15.10
2018,09,29,13,04,15.10
2018,09,29,13,05,15.10
2018,09,29,13,06,15.00
2018,09,29,13,07,15.10
2018,09,29,13,08,15.10
2018,09,29,13,09,15.20
2018,09,29,13,10,15.30
2018,09,29,13,11,15.30
2018,09,29,13,12,15.30
2018,09,29,13,13,15.30
2018,09,29,13,14,15.30
2018,09,29,13,15,15.20
2018,09,29,13,16,15.20
2018,09,29,13,17,15.20
2018,09,29,13,18,15.10
2018,09,29,13,19,15.10
2018,09,29,13,20,15.10
2018,09,29,13,21,15.20
2018,09,29,13,22,15.20
2018,09,29,13,23,15.20
2018,09,29,13,24,15.20
2018,09,29,13,25,15.20
2018,09,29,13,26,15.20
2018,09,29,13,27,15.20
2018,09,29,13,28,15.20
2018,09,29,13,29,15.20
2018,09,29,13,30,15.20
2018,09,29,13,31,15.20
2018,09,29,13,32,15.20
2018,09,29,13,33,15.10
2018,09,29,13,34,15.10
2018,09,29,13,35,15.10
2018,09,29,13,36,15.10
2018,09,29,13,37,15.00
2018,09,29,13,38,15.00
2018,09,29,13,39,15.00
2018,09,29,13,40,15.00
2018,09,29,13,41,15.10
2018,09,29,13,42,15.10
2018,09,29,13,43,15.10
2018,09,29,13,44,15.00
2018,09,29,13,45,15.00
2018,09,29,13,46,14.90
2018,09,29,13,47,15.00
2018,09,29,13,48,15.10
2018,09,29,13,49,15.10
2018,09,29,13,50,15.10
2018,09,29,13,51,15.10
2018,09,29,13,52,15.10
2018,09,29,13,53,15.10
2018,09,29,13,54,15.10
2018,09,29,13,55,15.20
2018,09,29,13,56,15.20
2018,09,29,13,57,15.20
2018,09,29,13,58,15.10
2018,09,29,13,59,15.10
2018,09,29,14,00,15.10
2018,09,29,14,01,15.10
2018,09,29,14,02,15.10
2018,09,29,14,03,15.10
2018,09,29,14,04,15.10
2018,09,29,14,05,15.10
2018,09,29,14,06,15.10
2018,09,29,14,07,15.00
2018,09,29,14,08,15.00
2018,09,29,14,09,15.00
2018,09,29,14,10,15.00
2018,09,29,14,11,15.00
2018,09,29,14,12,15.10
2018,09,29,14,13,15.20
2018,09,29,14,14,15.20
2018,09,29,14,15,15.20
2018,09,29,14,16,15.30
2018,09,29,14,17,15.30
2018,09,29,14,18,15.30
2018,09,29,14,19,15.30
2018,09,29,14,20,15.30
2018,09,29,14,21,15.20
2018,09,29,14,22,15.20
2018,09,29,14,23,15.20
2018,09,29,14,24,15.30
2018,09,29,14,25,15.30
2018,09,29,14,26,15.30
2018,09,29,14,27,15.20
2018,09,29,14,28,15.20
2018,09,29,14,29,15.10
2018,09,29,14,30,15.00
2018,09,29,14,31,14.90
2018,09,29,14,32,14.90
2018,09,29,14,33,14.90
2018,09,29,14,34,14.90
2018,09,29,14,35,15.00
2018,09,29,14,36,15.00
2018,09,29,14,37,15.00
2018,09,29,14,38,14.90
2018,09,29,14,39,14.90
2018,09,29,14,40,14.90
2018,09,29,14,41,14.90
2018,09,29,14,42,14.90
2018,09,29,14,43,14.90
2018,09,29,14,44,14.90
2018,09,29,14,45,14.90
2018,09,29,14,46,14.80
2018,09,29,14,47,14.80
2018,09,29,14,48,14.80
2018,09,29,14,49,14.80
2018,09,29,14,50,14.80
2018,09,29,14,51,14.70
2018,09,29,14,52,14.60
2018,09,29,14,53,14.60
2018,09,29,14,54,14.70
2018,09,29,14,55,14.80
2018,09,29,14,56,14.80
2018,09,29,14,57,14.90
2018,09,29,14,58,14.80
2018,09,29,14,59,14.90
2018,09,29,15,00,14.90
2018,09,29,15,01,14.90
2018,09,29,15,02,14.90
2018,09,29,15,03,14.90
2018,09,29,15,04,14.90
2018,09,29,15,05,14.90
2018,09,29,15,06,14.90
2018,09,29,15,07,14.80
2018,09,29,15,08,14.80
2018,09,29,15,09,14.80
2018,09,29,15,10,14.80
2018,09,29,15,11,14.80
2018,09,29,15,12,14.80
2018,09,29,15,13,14.80
2018,09,29,15,14,14.80
2018,09,29,15,15,14.80
2018,09,29,15,16,14.80
2018,09,29,15,17,14.80
2018,09,29,15,18,14.80
2018,09,29,15,19,14.80
2018,09,29,15,20,14.80
2018,09,29,15,21,14.80
2018,09,29,15,22,14.80
2018,09,29,15,23,14.70
2018,09,29,15,24,14.70
2018,09,29,15,25,14.60
2018,09,29,15,26,14.60
2018,09,29,15,27,14.60
2018,09,29,15,28,14.60
2018,09,29,15,29,14.50
2018,09,29,15,30,14.50
2018,09,29,15,31,14.50
2018,09,29,15,32,14.50
2018,09,29,15,33,14.50
2018,09,29,15,34,14.50
2018,09,29,15,35,14.60
2018,09,29,15,36,14.60
2018,09,29,15,37,14.60
2018,09,29,15,38,14.60
2018,09,29,15,39,14.60
2018,09,29,15,40,14.60
2018,09,29,15,41,14.60
2018,09,29,15,42,14.60
2018,09,29,15,43,14.70
2018,09,29,15,44,14.70
2018,09,29,15,45,14.60
2018,09,29,15,46,14.60
2018,09,29,15,47,14.60
2018,09,29,15,48,14.70
2018,09,29,15,49,14.70
2018,09,29,15,50,14.70
2018,09,29,15,51,14.70
2018,09,29,15,52,14.70
2018,09,29,15,53,14.80
2018,09,29,15,54,14.70
2018,09,29,15,55,14.70
2018,09,29,15,56,14.70
2018,09,29,15,57,14.80
2018,09,29,15,58,14.80
2018,09,29,15,59,14.70
2018,09,29,16,00,14.70
2018,09,29,16,01,14.70
2018,09,29,16,02,14.70
2018,09,29,16,03,14.80
2018,09,29,16,04,14.80
2018,09,29,16,05,14.80
2018,09,29,16,06,14.80
2018,09,29,16,07,14.80
2018,09,29,16,08,14.80
2018,09,29,16,09,14.80
2018,09,29,16,10,14.80
2018,09,29,16,11,14.70
2018,09,29,16,12,14.60
2018,09,29,16,13,14.50
2018,09,29,16,14,14.50
2018,09,29,16,15,14.40
2018,09,29,16,16,14.30
2018,09,29,16,17,14.30
2018,09,29,16,18,14.20
2018,09,29,16,19,14.20
2018,09,29,16,20,14.20
2018,09,29,16,21,14.20
2018,09,29,16,22,14.20
2018,09,29,16,23,14.20
2018,09,29,16,24,14.20
2018,09,29,16,25,14.20
2018,09,29,16,26,14.30
2018,09,29,16,27,14.30
2018,09,29,16,28,14.30
2018,09,29,16,29,14.30
2018,09,29,16,30,14.30
2018,09,29,16,31,14.30
2018,09,29,16,32,14.30
2018,09,29,16,33,14.30
2018,09,29,16,34,14.20
2018,09,29,16,35,14.20
2018,09,29,16,36,14.20
2018,09,29,16,37,14.20
2018,09,29,16,38,14.20
2018,09,29,16,39,14.20
2018,09,29,16,40,14.20
2018,09,29,16,41,14.20
2018,09,29,16,42,14.20
2018,09,29,16,43,14.20
2018,09,29,16,44,14.20
2018,09,29,16,45,14.20
2018,09,29,16,46,14.20
2018,09,29,16,47,14.20
2018,09,29,16,48,14.20
2018,09,29,16,49,14.10
2018,09,29,16,50,14.20
2018,09,29,16,51,14.20
2018,09,29,16,52,14.30
2018,09,29,16,53,14.30
2018,09,29,16,54,14.40
2018,09,29,16,55,14.40
2018,09,29,16,56,14.50
2018,09,29,16,57,14.50
2018,09,29,16,58,14.60
2018,09,29,16,59,14.60
2018,09,29,17,00,14.60
2018,09,29,17,01,14.60
2018,09,29,17,02,14.60
2018,09,29,17,03,14.60
2018,09,29,17,04,14.60
2018,09,29,17,05,14.50
2018,09,29,17,06,14.50
2018,09,29,17,07,14.40
2018,09,29,17,08,14.40
2018,09,29,17,09,14.40
2018,09,29,17,10,14.40
2018,09,29,17,11,14.30
2018,09,29,17,12,14.30
2018,09,29,17,13,14.30
2018,09,29,17,14,14.30
2018,09,29,17,15,14.30
2018,09,29,17,16,14.30
2018,09,29,17,17,14.30
2018,09,29,17,18,14.30
2018,09,29,17,19,14.20
2018,09,29,17,20,14.20
2018,09,29,17,21,14.20
2018,09,29,17,22,14.20
2018,09,29,17,23,14.20
2018,09,29,17,24,14.20
2018,09,29,17,25,14.20
2018,09,29,17,26,14.10
2018,09,29,17,27,14.00
2018,09,29,17,28,13.90
2018,09,29,17,29,13.90
2018,09,29,17,30,13.80
2018,09,29,17,31,13.70
2018,09,29,17,32,13.70
2018,09,29,17,33,13.70
2018,09,29,17,34,13.80
2018,09,29,17,35,13.80
2018,09,29,17,36,13.80
2018,09,29,17,37,13.70
2018,09,29,17,38,13.70
2018,09,29,17,39,13.60
2018,09,29,17,40,13.60
2018,09,29,17,41,13.60
2018,09,29,17,42,13.60
2018,09,29,17,43,13.70
2018,09,29,17,44,13.60
2018,09,29,17,45,13.60
2018,09,29,17,46,13.50
2018,09,29,17,47,13.50
2018,09,29,17,48,13.40
2018,09,29,17,49,13.40
2018,09,29,17,50,13.30
2018,09,29,17,51,13.30
2018,09,29,17,52,13.30
2018,09,29,17,53,13.40
2018,09,29,17,54,13.40
2018,09,29,17,55,13.40
2018,09,29,17,56,13.40
2018,09,29,17,57,13.40
2018,09,29,17,58,13.40
2018,09,29,17,59,13.50
2018,09,29,18,00,13.50
2018,09,29,18,01,13.50
2018,09,29,18,02,13.50
2018,09,29,18,03,13.50
2018,09,29,18,04,13.50
2018,09,29,18,05,13.50
2018,09,29,18,06,13.60
2018,09,29,18,07,13.60
2018,09,29,18,08,13.60
2018,09,29,18,09,13.70
2018,09,29,18,10,13.70
2018,09,29,18,11,13.80
2018,09,29,18,12,13.80
2018,09,29,18,13,13.80
2018,09,29,18,14,13.80
2018,09,29,18,15,13.80
2018,09,29,18,16,13.80
2018,09,29,18,17,13.80
2018,09,29,18,18,13.80
2018,09,29,18,19,13.70
2018,09,29,18,20,13.70
2018,09,29,18,21,13.70
2018,09,29,18,22,13.70
2018,09,29,18,23,13.70
2018,09,29,18,24,13.70
2018,09,29,18,25,13.70
2018,09,29,18,26,13.70
2018,09,29,18,27,13.60
2018,09,29,18,28,13.60
2018,09,29,18,29,13.60
2018,09,29,18,30,13.70
2018,09,29,18,31,13.70
2018,09,29,18,32,13.70
2018,09,29,18,33,13.80
2018,09,29,18,34,13.80
2018,09,29,18,35,13.70
2018,09,29,18,36,13.70
2018,09,29,18,37,13.60
2018,09,29,18,38,13.60
2018,09,29,18,39,13.60
2018,09,29,18,40,13.50
2018,09,29,18,41,13.50
2018,09,29,18,42,13.40
2018,09,29,18,43,13.40
2018,09,29,18,44,13.40
2018,09,29,18,45,13.40
2018,09,29,18,46,13.40
2018,09,29,18,47,13.40
2018,09,29,18,48,13.40
2018,09,29,18,49,13.40
2018,09,29,18,50,13.40
2018,09,29,18,51,13.30
2018,09,29,18,52,13.30
2018,09,29,18,53,13.30
2018,09,29,18,54,13.30
2018,09,29,18,55,13.30
2018,09,29,18,56,13.30
2018,09,29,18,57,13.30